Tracking 30743 objects as of 22-Jun-2025
HD Live streaming from Space Station
objects crossing your sky now

STARLINK-4274

Track STARLINK-4274 now!
10-day predictions
STARLINK-4274 is classified as:


NORAD ID: 52865
Int'l Code: 2022-062AM
Perigee: 545.9 km
Apogee: 547.9 km
Inclination: 53.2 °
Period: 95.4 minutes
Semi major axis: 6917 km
RCS: Unknown
Launch date: June 17, 2022
Source: United States (US)
Launch site: AIR FORCE EASTERN TEST RANGE (AFETR)
Your satellite tracking list
Your tracking list is empty




NASA's NSSDC Master Catalog

Two Line Element Set (TLE):
1 52865U 22062AM  25172.86818882 -.00000969  00000-0 -42808-4 0  9996
2 52865  53.2175 114.9918 0001423  94.6095 265.5059 15.08833228166552
Source of the keplerian elements: AFSPC